This demonstration page uses our WeatherBlox Daily Observations layout. Learn more.

Left ArrowRight Arrow

Hourly Observations for May 18, 2022

Temp ( °F °C ) Dew Point ( °F °C ) Humidity (%) Winds ( mph kmh ) Pressure ( in mb ) Visibility ( mi km ) Precip ( " mm )
12:53 am 00:53 Mostly Clear 57 13.9 52 11.1 83 83 Calm 30.02 1017 10 16 0.00 0.00
1:53 am 01:53 Clear 56 13.3 51 10.6 84 84 Calm 30.01 1016 10 16 0.00 0.00
2:53 am 02:53 Clear 55 12.8 52 11.1 90 90 Calm 30.00 1016 10 16 0.00 0.00
3:53 am 03:53 Clear 55 12.8 52 11.1 90 90 Calm 29.98 1015 10 16 0.00 0.00
4:53 am 04:53 Clear 55 12.8 51 10.6 87 87 Calm 29.98 1015 10 16 0.00 0.00
5:53 am 05:53 Clear 57 13.9 53 11.7 87 87 Calm 29.97 1015 10 16 0.00 0.00
6:53 am 06:53 Mostly Cloudy 59 15 52 11.1 78 78 ENE 3 6 29.98 1015 10 16 0.00 0.00
7:53 am 07:53 Cloudy with Light Rain 59 15 54 12.2 83 83 Calm 29.99 1016 10 16 0.00 0.00
8:53 am 08:53 Mostly Cloudy 61 16.1 53 11.7 75 75 E 5 7 29.96 1015 10 16 0.01 0.25
9:53 am 09:53 Cloudy 63 17.2 54 12.2 73 73 ESE 5 7 29.96 1015 10 16 0.00 0.00
10:53 am 10:53 Mostly Cloudy 65 18.3 55 12.8 70 70 Calm 29.97 1015 10 16 0.00 0.00
11:53 am 11:53 Mostly Cloudy 73 22.8 58 14.4 59 59 Calm 29.95 1014 10 16 0.00 0.00
12:53 pm 12:53 Cloudy 74 23.3 57 13.9 56 56 SW 8 13 29.91 1013 10 16 0.00 0.00
1:53 pm 13:53 Mostly Cloudy 74 23.3 56 13.3 54 54 VRB 3 6 29.86 1011 10 16 0.00 0.00
2:53 pm 14:53 Mostly Sunny 74 23.3 57 13.9 56 56 Calm 29.79 1009 10 16 0.00 0.00
3:53 pm 15:53 Cloudy with Light Rain 72 22.2 60 15.6 66 66 Calm 29.80 1009 10 16 0.00 0.00
4:53 pm 16:53 Cloudy with Light Rain 67 19.4 63 17.2 87 87 Calm 29.81 1010 6 10 0.02 0.51
5:53 pm 17:53 Cloudy with Light Rain 67 19.4 65 18.3 93 93 Calm 29.79 1009 5 8 0.04 1.02
6:53 pm 18:53 Cloudy with Rain 65 18.3 63 17.2 93 93 Calm 29.78 1009 3 5 0.10 2.54
7:35 pm 19:35 Cloudy with Light Rain 64 17.8 62 16.7 93 93 Calm 29.77 1008 3 4 0.04 1.02
7:42 pm 19:42 Cloudy with Light Rain 64 17.8 62 16.7 93 93 Calm 29.77 1008 2 3 0.05 1.27
7:50 pm 19:50 Cloudy with Light Rain 64 18 63 17 94 94 E 3 6 29.77 1008 2 3 0.06 1.52
7:51 pm 19:51 Cloudy with Light Rain 64 17.8 62 16.7 93 93 E 3 6 29.77 1008 2 3 0.06 1.52
8:02 pm 20:02 Cloudy with Light Rain 63 17.2 61 16.1 93 93 E 5 7 29.77 1008 3 5 0.01 0.25
8:09 pm 20:09 Cloudy with Light Rain 63 17.2 61 16.1 93 93 ESE 3 6 29.76 1008 3 4 0.01 0.25
8:16 pm 20:16 Cloudy with Light Rain 63 17.2 61 16.1 93 93 ESE 3 6 29.76 1008 4 6 0.01 0.25
8:53 pm 20:53 Cloudy with Mist and Fog 63 17.2 62 16.7 97 97 Calm 29.77 1008 5 8 0.02 0.51
8:59 pm 20:59 Cloudy with Mist and Fog 63 17.2 62 16.7 97 97 Calm 29.76 1008 5 8 0.00 0.00
9:48 pm 21:48 Cloudy with Mist and Fog 63 17 63 17 100 100 Calm 29.77 1008 4 6 0.01 0.25
9:49 pm 21:49 Cloudy with Mist and Fog 63 17.2 62 16.7 97 97 Calm 29.77 1008 4 6 0.01 0.25
10:01 pm 22:01 Cloudy with Mist and Fog 63 17.2 62 16.7 97 97 Calm 29.77 1008 5 8 0.00 0.00
10:20 pm 22:20 Cloudy with Mist and Fog 63 17.2 62 16.7 97 97 Calm 29.78 1009 4 6 0.00 0.00
10:29 pm 22:29 Cloudy with Mist and Fog 63 17.2 62 16.7 97 97 Calm 29.78 1009 4 6 0.00 0.00
10:53 pm 22:53 Cloudy with Mist and Fog 63 17.2 62 16.7 97 97 Calm 29.79 1009 5 8 0.00 0.00
11:06 pm 23:06 Cloudy with Mist and Fog 63 17.2 62 16.7 97 97 Calm 29.79 1009 4 6 0.00 0.00
11:14 pm 23:14 Cloudy with Mist and Fog 63 17.2 62 16.7 97 97 Calm 29.79 1009 4 6 0.00 0.00
11:53 pm 23:53 Cloudy with Mist and Fog 63 17.2 62 16.7 97 97 Calm 29.79 1009 4 6 0.00 0.00

Powered by AerisWeather